Flag for U.S.A. Weather past 2 weeks in Chesapeake, Virginia, U.S.A.

Now
84 °F

Sunny.


Feels Like: 87 °F
Forecast: 65 / 86 °F
Wind: 6 mph from Southeast

Location: Chesapeake Municipal Airport

Current Time: Jul 26, 2014 at 1:12:36 PM

Latest Report: Jul 26, 2014 at 12:35 PM


Visibility: 7 mi

Pressure: 30.02 "Hg

Humidity: 58%

Dew point: 68 °F

Location of ChesapeakeLocation

Historic Weather in Chesapeake — Graph

°F

Chesapeake temperature yesterday

Maximum temperature yesterday: 82 °F (at 1:35 PM)
Minimum temperature yesterday: 66 °F (at 10:15 PM)
Average temperature yesterday: 75 °F

Past Weeks' High & Low Weather Summary

 TemperatureHumidityPressure
High91 °F (Jul 14, 1:55 PM)100% (Jul 11, 11:35 PM)30.24 "Hg (Jul 11, 11:35 PM)
Low61 °F (Jul 18, 4:55 AM)37% (Jul 18, 1:35 PM)29.75 "Hg (Jul 15, 3:15 PM)
Average76 °F80%30.04 "Hg
* Reported Jul 11 11:15 AM — Jul 26 11:55 AM, Chesapeake, Weather by CustomWeather, © 2014

Note: Actual official high and low records may vary slightly from our data, if they occured in-between our weather recording intervals... More about our weather records

Advertising

Chesapeake weather history for previous 24 hours

 ConditionsComfort  
Time TempWeatherWind HumidityBarometerVisibility
11:55 AM
Jul 26
82 °FSunny.3 mph58%30.03 "Hg7 mi
11:35 AM82 °FSunny.5 mph55%30.03 "Hg7 mi
11:15 AM82 °FSunny.6 mph55%30.03 "Hg7 mi
10:55 AM81 °FScattered clouds.3 mph62%30.03 "Hg7 mi
10:35 AM81 °FScattered clouds.5 mph62%30.04 "Hg7 mi
10:15 AM81 °FScattered clouds.5 mph62%30.04 "Hg5 mi
9:55 AM79 °FScattered clouds.6 mph65%30.04 "Hg7 mi
9:35 AM79 °FScattered clouds.6 mph65%30.04 "Hg7 mi
9:15 AM77 °FSunny.3 mph69%30.05 "Hg5 mi
8:55 AM75 °FSunny.No wind74%30.05 "Hg5 mi
8:35 AM73 °FSunny.No wind78%30.05 "Hg7 mi
8:15 AM70 °FSunny.No wind88%30.05 "Hg7 mi
7:55 AM70 °FFog.No wind83%30.05 "Hg5 mi
7:35 AM68 °FScattered clouds.No wind94%30.04 "Hg7 mi
7:15 AM66 °FSunny.No wind94%30.04 "Hg7 mi
6:55 AM66 °FFog.No wind94%30.04 "Hg5 mi
6:35 AM66 °FClear.No wind94%30.03 "Hg7 mi
6:15 AM66 °FPassing clouds.No wind94%30.04 "Hg7 mi
5:55 AM66 °FPartly cloudy.No wind94%30.03 "Hg7 mi
5:35 AM66 °FPassing clouds.No wind94%30.03 "Hg7 mi
5:15 AM64 °FPassing clouds.No wind94%30.03 "Hg7 mi
4:55 AM64 °FPassing clouds.No wind94%30.03 "Hg7 mi
4:35 AM64 °FPassing clouds.No wind94%30.03 "Hg7 mi
4:15 AM64 °FPassing clouds.No wind94%30.02 "Hg7 mi
3:55 AM64 °FPassing clouds.No wind94%30.02 "Hg7 mi
3:35 AM64 °FPassing clouds.No wind94%30.03 "Hg7 mi
3:15 AM64 °FClear.No wind94%30.03 "Hg7 mi
2:55 AM64 °FClear.No wind94%30.03 "Hg10 mi
2:35 AM64 °FFog.No wind94%30.03 "Hg5 mi
2:15 AM64 °FClear.No wind94%30.03 "Hg7 mi
1:55 AM66 °FClear.No wind88%30.03 "Hg7 mi
1:35 AM64 °FClear.No wind94%30.04 "Hg7 mi
1:15 AM66 °FClear.No wind88%30.04 "Hg10 mi
12:55 AM66 °FClear.No wind88%30.04 "Hg7 mi
12:35 AM66 °FClear.No wind88%30.04 "Hg10 mi
12:15 AM66 °FClear.No wind88%30.04 "Hg7 mi
11:55 PM
Jul 25
66 °FClear.No wind88%30.05 "Hg7 mi
11:35 PM68 °FClear.3 mph83%30.05 "Hg10 mi
10:55 PM68 °FClear.No wind83%30.05 "Hg10 mi
10:35 PM68 °FClear.No wind83%30.06 "Hg7 mi
10:15 PM66 °FClear.No wind88%30.06 "Hg7 mi
9:55 PM70 °FClear.No wind78%30.06 "Hg7 mi
9:35 PM70 °FClear.3 mph78%30.06 "Hg7 mi
9:15 PM70 °FSunny.5 mph78%30.05 "Hg10 mi
8:55 PM72 °FSunny.No wind78%30.06 "Hg7 mi
8:35 PM72 °FSunny.3 mph78%30.06 "Hg10 mi
7:55 PM73 °FSunny.No wind74%30.05 "Hg4 mi
7:35 PM75 °FSunny.3 mph69%30.05 "Hg7 mi
7:15 PM77 °FScattered clouds.3 mph61%30.05 "Hg10 mi
6:55 PM77 °FPartly sunny.3 mph61%30.04 "Hg5 mi
6:35 PM79 °FOvercast.7 mph58%30.04 "Hg4 mi
6:15 PM82 °FPartly sunny.5 mph51%30.03 "Hg7 mi
5:55 PM82 °FScattered clouds.3 mph51%30.02 "Hg10 mi
5:35 PM82 °FSunny.5 mph48%30.01 "Hg7 mi
5:15 PM82 °FSunny.No wind48%30.01 "Hg7 mi
4:55 PM82 °FSunny.No wind48%30.00 "Hg7 mi
4:35 PM82 °FSunny.No wind45%30.01 "Hg10 mi
4:15 PM82 °FSunny.5 mph42%30.01 "Hg7 mi
3:55 PM82 °FSunny.No wind42%30.02 "Hg7 mi
3:35 PM82 °FSunny.5 mph42%30.02 "Hg10 mi
3:15 PM82 °FSunny.No wind42%30.03 "Hg7 mi
2:55 PM82 °FSunny.7 mph42%30.03 "Hg10 mi
2:35 PM82 °FSunny.5 mph42%30.03 "Hg5 mi
2:15 PM82 °FSunny.5 mph42%30.04 "Hg7 mi
1:55 PM82 °FScattered clouds.No wind45%30.04 "Hg7 mi
1:35 PM82 °FScattered clouds.5 mph45%30.05 "Hg7 mi
1:15 PM81 °FSunny.3 mph45%30.06 "Hg10 mi
Weather by CustomWeather, © 2014

See weather overviewHow to use our weather pages